When you browse on this site, cookies collect data to enhance your experience and personalize the content and advertising you see.
Visit our Privacy Policy to learn more. By continuing to use the site, you agree to this use of cookies and data.
  • In Hungary
  • List of Countries
  • For 7 days
  • Water Temperature
  • Weather Map
  • News
  • Weather Widgets
  • user-avatar
    Login

    Hourly Weather Stavrove

    Today, 25 August, Sunday

    Time Temperature Precipitation Wind Pressure Humidity
    00:00 +22°C° 0 mm 4 mps 750 mmHg 62%
    01:00 +22°C° 0 mm 4 mps 750 mmHg 63%
    02:00 +21°C° 0 mm 3 mps 750 mmHg 65%
    03:00 +20°C° 0 mm 3 mps 750 mmHg 67%
    04:00 +20°C° 0 mm 4 mps 750 mmHg 70%
    05:00 +19°C° 0 mm 4 mps 750 mmHg 72%
    06:00 +21°C° 0 mm 4 mps 750 mmHg 67%
    07:00 +23°C° 0 mm 4 mps 751 mmHg 61%
    08:00 +25°C° 0 mm 5 mps 751 mmHg 56%
    09:00 +27°C° 0 mm 5 mps 751 mmHg 50%
    10:00 +29°C° 0 mm 5 mps 751 mmHg 44%
    11:00 +32°C° 0 mm 4 mps 751 mmHg 38%
    12:00 +32°C° 0 mm 4 mps 751 mmHg 36%
    13:00 +33°C° 0 mm 4 mps 750 mmHg 34%
    14:00 +33°C° 0 mm 4 mps 750 mmHg 32%
    15:00 +33°C° 0 mm 4 mps 750 mmHg 32%
    16:00 +33°C° 0 mm 4 mps 750 mmHg 32%
    17:00 +32°C° 0 mm 4 mps 750 mmHg 32%
    18:00 +29°C° 0 mm 4 mps 750 mmHg 35%
    19:00 +27°C° 0 mm 5 mps 750 mmHg 38%
    20:00 +25°C° 0 mm 5 mps 750 mmHg 41%
    21:00 +25°C° 0 mm 4 mps 750 mmHg 42%
    22:00 +23°C° 0 mm 4 mps 750 mmHg 43%
    23:00 +22°C° 0 mm 4 mps 750 mmHg 44%

    Tomorrow, 26 August, Monday

    Time Temperature Precipitation Wind Pressure Humidity
    00:00 +21°C° 0 mm 4 mps 751 mmHg 44%
    01:00 +20°C° 0 mm 4 mps 751 mmHg 45%
    02:00 +19°C° 0 mm 4 mps 751 mmHg 46%
    03:00 +19°C° 0 mm 3 mps 751 mmHg 49%
    04:00 +18°C° 0 mm 3 mps 750 mmHg 53%
    05:00 +17°C° 0 mm 3 mps 750 mmHg 57%
    06:00 +19°C° 0 mm 3 mps 751 mmHg 53%
    07:00 +21°C° 0 mm 4 mps 751 mmHg 48%
    08:00 +23°C° 0 mm 4 mps 751 mmHg 44%
    09:00 +26°C° 0 mm 4 mps 751 mmHg 39%
    10:00 +28°C° 0 mm 4 mps 751 mmHg 34%
    11:00 +30°C° 0 mm 4 mps 751 mmHg 29%
    12:00 +32°C° 0 mm 4 mps 751 mmHg 28%
    13:00 +32°C° 0 mm 4 mps 751 mmHg 26%
    14:00 +33°C° 0 mm 4 mps 750 mmHg 25%
    15:00 +33°C° 0 mm 4 mps 750 mmHg 27%
    16:00 +32°C° 0 mm 4 mps 750 mmHg 28%
    17:00 +32°C° 0 mm 4 mps 749 mmHg 30%
    18:00 +29°C° 0 mm 4 mps 749 mmHg 35%
    19:00 +27°C° 0 mm 3 mps 749 mmHg 41%
    20:00 +25°C° 0 mm 3 mps 749 mmHg 46%
    21:00 +24°C° 0 mm 3 mps 749 mmHg 50%
    22:00 +22°C° 0 mm 3 mps 750 mmHg 53%
    23:00 +21°C° 0 mm 3 mps 750 mmHg 56%

    Day after tomorrow, 27 August, Tuesday

    Time Temperature Precipitation Wind Pressure Humidity
    00:00 +20°C° 0 mm 3 mps 750 mmHg 56%
    01:00 +20°C° 0 mm 3 mps 750 mmHg 57%
    02:00 +19°C° 0 mm 3 mps 750 mmHg 58%
    03:00 +19°C° 0 mm 3 mps 749 mmHg 59%
    04:00 +18°C° 0 mm 3 mps 749 mmHg 60%
    05:00 +17°C° 0 mm 2 mps 749 mmHg 61%
    06:00 +20°C° 0 mm 3 mps 749 mmHg 56%
    07:00 +22°C° 0 mm 3 mps 750 mmHg 50%
    08:00 +25°C° 0 mm 3 mps 750 mmHg 44%
    09:00 +26°C° 0 mm 3 mps 750 mmHg 40%
    10:00 +28°C° 0 mm 3 mps 750 mmHg 35%
    11:00 +30°C° 0 mm 4 mps 750 mmHg 30%
    12:00 +32°C° 0 mm 4 mps 750 mmHg 27%
    13:00 +33°C° 0 mm 3 mps 749 mmHg 25%
    14:00 +33°C° 0 mm 3 mps 749 mmHg 22%
    15:00 +33°C° 0 mm 4 mps 749 mmHg 22%
    16:00 +33°C° 0 mm 4 mps 749 mmHg 23%
    17:00 +33°C° 0 mm 4 mps 748 mmHg 23%
    18:00 +29°C° 0 mm 4 mps 748 mmHg 27%
    19:00 +27°C° 0 mm 3 mps 749 mmHg 32%
    20:00 +24°C° 0 mm 3 mps 749 mmHg 37%
    21:00 +22°C° 0 mm 3 mps 749 mmHg 40%
    22:00 +21°C° 0 mm 3 mps 749 mmHg 43%
    23:00 +20°C° 0 mm 3 mps 749 mmHg 46%

    28 August, Wednesday

    Time Temperature Precipitation Wind Pressure Humidity
    00:00 +19°C° 0 mm 3 mps 749 mmHg 49%
    01:00 +18°C° 0 mm 2 mps 749 mmHg 51%
    02:00 +18°C° 0 mm 2 mps 749 mmHg 54%
    03:00 +17°C° 0 mm 2 mps 749 mmHg 56%
    04:00 +17°C° 0 mm 2 mps 749 mmHg 59%
    05:00 +17°C° 0 mm 2 mps 749 mmHg 61%
    06:00 +19°C° 0 mm 2 mps 750 mmHg 56%
    07:00 +21°C° 0 mm 2 mps 750 mmHg 51%
    08:00 +24°C° 0 mm 2 mps 750 mmHg 45%
    09:00 +26°C° 0 mm 3 mps 750 mmHg 41%
    10:00 +27°C° 0 mm 3 mps 750 mmHg 36%
    11:00 +29°C° 0 mm 3 mps 750 mmHg 32%
    12:00 +30°C° 0 mm 3 mps 749 mmHg 29%
    13:00 +31°C° 0 mm 3 mps 749 mmHg 27%
    14:00 +33°C° 0 mm 3 mps 748 mmHg 24%
    15:00 +31°C° 0 mm 3 mps 748 mmHg 25%
    16:00 +31°C° 0 mm 3 mps 748 mmHg 26%
    17:00 +31°C° 0 mm 3 mps 748 mmHg 26%
    18:00 +29°C° 0 mm 3 mps 748 mmHg 33%
    19:00 +26°C° 0 mm 4 mps 747 mmHg 40%
    20:00 +23°C° 0 mm 4 mps 747 mmHg 46%
    21:00 +22°C° 0 mm 4 mps 748 mmHg 49%
    22:00 +21°C° 0 mm 3 mps 748 mmHg 52%
    23:00 +20°C° 0 mm 3 mps 748 mmHg 55%

    29 August, Thursday

    Time Temperature Precipitation Wind Pressure Humidity
    00:00 +19°C° 0 mm 3 mps 748 mmHg 55%
    01:00 +18°C° 0 mm 3 mps 748 mmHg 54%
    02:00 +18°C° 0 mm 3 mps 748 mmHg 54%
    03:00 +17°C° 0 mm 3 mps 748 mmHg 56%
    04:00 +17°C° 0 mm 3 mps 748 mmHg 59%
    05:00 +16°C° 0 mm 3 mps 748 mmHg 61%
    06:00 +17°C° 0 mm 4 mps 748 mmHg 56%
    07:00 +19°C° 0 mm 4 mps 748 mmHg 51%
    08:00 +20°C° 0 mm 4 mps 748 mmHg 46%
    09:00 +22°C° 0 mm 5 mps 749 mmHg 41%
    10:00 +25°C° 0 mm 5 mps 749 mmHg 37%
    11:00 +26°C° 0 mm 5 mps 749 mmHg 33%
    12:00 +27°C° 0 mm 5 mps 749 mmHg 31%
    13:00 +27°C° 0 mm 5 mps 748 mmHg 29%
    14:00 +27°C° 0 mm 5 mps 748 mmHg 28%
    15:00 +27°C° 0 mm 5 mps 748 mmHg 28%
    16:00 +26°C° 0 mm 5 mps 748 mmHg 28%
    17:00 +25°C° 0 mm 5 mps 748 mmHg 28%
    18:00 +22°C° 0 mm 5 mps 748 mmHg 29%
    19:00 +20°C° 0 mm 5 mps 748 mmHg 30%
    20:00 +18°C° 0 mm 4 mps 748 mmHg 32%
    21:00 +17°C° 0 mm 4 mps 749 mmHg 33%
    22:00 +15°C° 0 mm 4 mps 749 mmHg 35%
    23:00 +14°C° 0 mm 4 mps 749 mmHg 37%

    30 August, Friday

    Time Temperature Precipitation Wind Pressure Humidity
    00:00 +13°C° 0 mm 3 mps 749 mmHg 39%
    01:00 +12°C° 0 mm 3 mps 749 mmHg 42%
    02:00 +12°C° 0 mm 3 mps 750 mmHg 44%
    03:00 +11°C° 0 mm 3 mps 750 mmHg 46%
    04:00 +11°C° 0 mm 3 mps 750 mmHg 49%
    05:00 +10°C° 0 mm 2 mps 750 mmHg 51%
    06:00 +12°C° 0 mm 3 mps 750 mmHg 47%
    07:00 +14°C° 0 mm 3 mps 750 mmHg 43%
    08:00 +17°C° 0 mm 4 mps 750 mmHg 39%
    09:00 +19°C° 0 mm 4 mps 750 mmHg 34%
    10:00 +21°C° 0 mm 4 mps 750 mmHg 30%
    11:00 +22°C° 0 mm 5 mps 751 mmHg 25%
    12:00 +23°C° 0 mm 4 mps 750 mmHg 24%
    13:00 +25°C° 0 mm 4 mps 750 mmHg 22%
    14:00 +26°C° 0 mm 4 mps 750 mmHg 20%
    15:00 +26°C° 0 mm 4 mps 749 mmHg 20%
    16:00 +25°C° 0 mm 4 mps 749 mmHg 20%
    17:00 +25°C° 0 mm 3 mps 749 mmHg 20%
    18:00 +22°C° 0 mm 3 mps 749 mmHg 24%
    19:00 +19°C° 0 mm 3 mps 749 mmHg 27%
    20:00 +17°C° 0 mm 2 mps 749 mmHg 31%
    21:00 +16°C° 0 mm 2 mps 749 mmHg 34%
    22:00 +15°C° 0 mm 2 mps 749 mmHg 36%
    23:00 +14°C° 0 mm 2 mps 749 mmHg 38%
    Show more